Weather History for KHIF - June, 2013

Change the Weather History Date:

Wednesday, June 5, 2013

  Actual Average Record
Temperature  
Mean Temperature 64 °F -  
Max Temperature 77 °F 72 °F 86 °F (2004)
Min Temperature 52 °F 51 °F 41 °F (1999)
Growing Degree Days 14 (Base 50)    
Moisture  
Dew Point 36 °F    
Average Humidity 35    
Maximum Humidity 51    
Minimum Humidity 20    
Precipitation  
Precipitation 0.00 in - - ()
Sea Level Pressure  
Sea Level Pressure 29.96 in    
Wind  
Wind Speed 11 mph (ESE)    
Max Wind Speed 20 mph    
Max Gust Speed 24 mph    
Visibility 10 miles    
Events      
Averages and records for this station are not official NWS values.
T = Trace of Precipitation, MM = Missing Value Source: NWS Daily Summary

Daily Weather History Graph

Daily Weather History Graph

Search for Another Location

Airport or City:

Trip Planner

Search our weather history database for the weather conditions in past years. The results will help you decide how hot, cold, wet, or windy it might be!

Date:

Astronomy

Jun. 05, 2013 Rise Set
Actual Time 5:56 AM MDT 8:57 PM MDT
Civil Twilight 5:22 AM MDT 9:30 PM MDT
Nautical Twilight 4:40 AM MDT 10:12 PM MDT
Astronomical Twilight 3:51 AM MDT 11:02 PM MDT
Moon 4:03 AM MDT (6/5) 6:26 PM MDT (6/5)
Length of Visible Light 16h 07m
Length of Day
15h 01m
Waning Crescent, 8% of the Moon is Illuminated
Jun 5
Waning Crescent
Jun 8
New
Jun 16
First Quarter
Jun 23
Full
Jun 29
Last Quarter

Hourly Weather History & Observations

Time (MDT) Temp. Dew Point Humidity Pressure Visibility Wind Dir Wind Speed Gust Speed Precip Events Conditions
12:58 AM 61.3 °F 33.6 °F 35% 29.95 in 10.0 mi ESE 11.5 mph - N/A   Clear
1:58 AM 59.2 °F 34.9 °F 40% 29.95 in 10.0 mi East 10.4 mph - N/A   Clear
2:58 AM 57.7 °F 35.2 °F 43% 29.94 in 10.0 mi ESE 16.1 mph - N/A   Clear
3:58 AM 55.8 °F 35.1 °F 46% 29.95 in 10.0 mi ESE 16.1 mph 23.0 mph N/A   Clear
4:58 AM 53.8 °F 35.8 °F 51% 29.97 in 10.0 mi ESE 19.6 mph 24.2 mph N/A   Clear
5:58 AM 52.7 °F 34.7 °F 50% 29.97 in 10.0 mi ESE 16.1 mph - N/A   Clear
6:58 AM 52.5 °F 34.9 °F 51% 29.99 in 10.0 mi ESE 18.4 mph - N/A   Clear
7:58 AM 54.5 °F 35.8 °F 49% 30.00 in 10.0 mi ESE 19.6 mph - N/A   Clear
8:58 AM 58.3 °F 37.8 °F 46% 30.00 in 10.0 mi ESE 18.4 mph - N/A   Clear
9:58 AM 63.5 °F 39.9 °F 42% 30.01 in 10.0 mi East 12.7 mph - N/A   Clear
10:58 AM 67.6 °F 37.9 °F 34% 30.01 in 10.0 mi ENE 5.8 mph - N/A   Clear
11:58 AM 71.1 °F 37.2 °F 29% 29.99 in 10.0 mi Variable 1.2 mph - N/A   Clear
12:58 PM 72.0 °F 35.2 °F 26% 30.00 in 10.0 mi Variable 6.9 mph - N/A   Clear
1:58 PM 74.3 °F 36.9 °F 26% 29.97 in 10.0 mi NNW 8.1 mph - N/A   Partly Cloudy
2:58 PM 75.6 °F 34.2 °F 22% 29.97 in 10.0 mi Variable 3.5 mph - N/A   Clear
3:58 PM 76.6 °F 36.5 °F 23% 29.96 in 10.0 mi NW 6.9 mph - N/A   Clear
4:58 PM 77.0 °F 36.1 °F 23% 29.95 in 10.0 mi Variable 4.6 mph - N/A   Clear
5:58 PM 77.4 °F 32.7 °F 20% 29.94 in 10.0 mi WSW 2.3 mph - N/A   Clear
6:58 PM 76.5 °F 32.7 °F 20% 29.94 in 10.0 mi Variable 1.2 mph - N/A   Clear
7:58 PM 74.8 °F 35.6 °F 24% 29.93 in 10.0 mi WNW 4.6 mph - N/A   Clear
8:58 PM 71.4 °F 37.2 °F 29% 29.92 in 10.0 mi West 2.3 mph - N/A   Clear
9:58 PM 69.1 °F 37.0 °F 31% 29.93 in 10.0 mi Calm Calm - N/A   Clear
10:58 PM 63.5 °F 37.8 °F 39% 29.95 in 10.0 mi ESE 8.1 mph - N/A   Clear
11:58 PM 62.1 °F 38.1 °F 41% 29.93 in 10.0 mi ESE 11.5 mph - N/A   Clear